Weather History for Key West NAF, FL

Change the Weather History Date:

Wednesday, October 3, 2012

  Actual Average Record
Temperature  
Mean Temperature 83 °F -  
Max Temperature 89 °F 86 °F 91 °F (1961)
Min Temperature 77 °F 77 °F 71 °F (1950)
Cooling Degree Days 18    
Growing Degree Days 33 (Base 50)    
Moisture  
Dew Point 76 °F    
Average Humidity 79    
Maximum Humidity 90    
Minimum Humidity 70    
Precipitation  
Precipitation 0.00 in - - ()
Sea Level Pressure  
Sea Level Pressure 30.07 in    
Wind  
Wind Speed 6 mph (ESE)    
Max Wind Speed 14 mph    
Max Gust Speed -    
Visibility 10 miles    
Events      
Averages and records for this station are not official NWS values.
T = Trace of Precipitation, MM = Missing Value Source: NWS Daily Summary

Daily Weather History Graph

Daily Weather History Graph

Search for Another Location

Airport:

Trip Planner

Search our weather history database for the weather conditions in past years. The results will help you decide how hot, cold, wet, or windy it might be!

Date:

Astronomy

Oct. 03, 2012 Rise Set
Actual Time 7:19 AM EDT 7:11 PM EDT
Civil Twilight 6:56 AM EDT 7:33 PM EDT
Nautical Twilight 6:30 AM EDT 8:00 PM EDT
Astronomical Twilight 6:04 AM EDT 8:26 PM EDT
Moon 9:28 PM EDT (10/3) 10:17 AM EDT (10/3)
Length of Visible Light 12h 36m
Length of Day
11h 51m
Waning Gibbous, 89% of the Moon is Illuminated
Oct 3
Waning Gibbous
Oct 8
Last Quarter
Oct 15
New
Oct 21
First Quarter
Oct 29
Full

Hourly Weather History & Observations

Time (EDT) Temp. Heat Index Dew Point Humidity Pressure Visibility Wind Dir Wind Speed Gust Speed Precip Events Conditions
12:53 AM 77.0 °F - 73.9 °F 90% 30.04 in 10.0 mi South 3.5 mph - N/A   Clear
1:53 AM 79.0 °F - 73.0 °F 82% 30.04 in 10.0 mi Calm Calm - N/A   Clear
2:53 AM 79.0 °F - 73.0 °F 82% 30.03 in 10.0 mi SSE 3.5 mph - N/A   Clear
3:53 AM 77.0 °F - 73.0 °F 88% 30.03 in 10.0 mi ESE 4.6 mph - N/A   Clear
4:53 AM 77.0 °F - 73.0 °F 88% 30.03 in 10.0 mi ESE 5.8 mph - N/A   Clear
5:53 AM 79.0 °F - 73.0 °F 82% 30.04 in 10.0 mi ESE 4.6 mph - N/A   Clear
6:13 AM 78.8 °F - 73.4 °F 83% 30.05 in 10.0 mi East 4.6 mph - N/A   Mostly Cloudy
6:53 AM 79.0 °F - 73.9 °F 84% 30.05 in 10.0 mi ESE 5.8 mph - N/A   Mostly Cloudy
7:53 AM 81.0 °F 86.7 °F 75.0 °F 82% 30.06 in 10.0 mi East 8.1 mph - N/A   Mostly Cloudy
8:53 AM 82.9 °F 90.8 °F 75.9 °F 79% 30.07 in 10.0 mi East 10.4 mph - N/A   Mostly Cloudy
9:53 AM 84.9 °F 95.3 °F 77.0 °F 77% 30.09 in 10.0 mi East 5.8 mph - N/A   Mostly Cloudy
10:53 AM 84.9 °F 97.5 °F 79.0 °F 82% 30.08 in 10.0 mi East 11.5 mph - N/A   Mostly Cloudy
11:53 AM 88.0 °F 101.3 °F 78.1 °F 72% 30.10 in 10.0 mi ESE 11.5 mph - N/A   Mostly Cloudy
12:53 PM 88.0 °F 101.3 °F 78.1 °F 72% 30.09 in 10.0 mi ESE 13.8 mph - N/A   Mostly Cloudy
1:53 PM 89.1 °F 103.2 °F 78.1 °F 70% 30.09 in 10.0 mi SE 13.8 mph - N/A   Mostly Cloudy
2:53 PM 89.1 °F 103.2 °F 78.1 °F 70% 30.06 in 10.0 mi ESE 12.7 mph - N/A   Clear
3:53 PM 88.0 °F 100.2 °F 77.0 °F 70% 30.06 in 10.0 mi SE 11.5 mph - N/A   Scattered Clouds
4:53 PM 88.0 °F 100.2 °F 77.0 °F 70% 30.06 in 10.0 mi ESE 6.9 mph - N/A   Scattered Clouds
5:53 PM 86.0 °F 96.0 °F 75.9 °F 72% 30.06 in 10.0 mi East 9.2 mph - N/A   Scattered Clouds
6:53 PM 84.9 °F 94.1 °F 75.9 °F 74% 30.06 in 10.0 mi East 6.9 mph - N/A   Scattered Clouds
7:45 PM - - - N/A% - - North - - N/A   Unknown
7:53 PM 84.0 °F 92.6 °F 75.9 °F 76% 30.07 in 10.0 mi East 8.1 mph - N/A   Scattered Clouds
8:53 PM 84.0 °F 92.6 °F 75.9 °F 76% 30.10 in 10.0 mi East 10.4 mph - N/A   Scattered Clouds
9:53 PM 84.0 °F 93.7 °F 77.0 °F 79% 30.11 in 10.0 mi East 6.9 mph - N/A   Scattered Clouds
10:53 PM 82.0 °F 90.2 °F 77.0 °F 85% 30.12 in 10.0 mi ENE 8.1 mph - N/A   Clear
11:53 PM 84.0 °F 93.7 °F 77.0 °F 79% 30.13 in 10.0 mi East 10.4 mph - N/A   Scattered Clouds